User: anonymous
Location: Unspecified
(0.0000°N, 0.0000°E)
Time: 17:33:09
(UTC+00:00)
Language:

KORONAS-FOTON - Orbit

View from above orbital plane
View from above orbital plane
View from above satellite
View from above satellite

Ground track
Ground track

The orbit data is extracted from the following two-line orbital elements,

1 33504U 09003A   14260.15701157  .00002639  00000-0  15559-3 0  1267
2 33504 082.4443 148.8082 0020178 339.0640 173.6119 15.11003199309602
Epoch (UTC): 17 September 2014 03:46:05
Eccentricity: 0.0020178
inclination: 82.4443°
perigee height: 519 km
apogee height: 547 km
right ascension of ascending node: 148.8082°
argument of perigee: 339.0640°
revolutions per day: 15.11003199
mean anomaly at epoch: 173.6119°
orbit number at epoch: 30960

The dashed part of the orbit path shows where the satellite is in the earth's shadow,  

DLR